Location: Glencliff
(36.1226°N, 86.7183°W)
Time: 15:49:48
(UTC+00:00)

Cosmos 2297 Rocket - Pass Details

Date: 25 August 2019
Orbit: 841 x 842 km, 71.0° (Epoch: 22 October)

Event Time Altitude Azimuth Distance (km) Brightness Sun altitude
Exits shadow 06:42:49 20° 30° (NNE) 1,848 4.4 -41.4°
Drops below altitude 10° 06:44:29 10° 27° (NNE) 2,464 5.3 -41.3°
Sets 06:46:57 0° 25° (NNE) 3,402 6.2 -41.1°
